Regional Weather Roundup
Issued by NWS

Home | Current Version | Previous Version | Text Only | Print | Product List | Glossary Off
Versions: 1 2 3 4 5 6 7 8 9 10 11 12 13 14 15 16 17 18 19 20 21 22 23 24 25 26 27 28 29 30 31 32 33 34 35 36 37 38 39 40 41 42 43 44 45 46 47 48 49 50

000
ASUS43 KLSX 042159
RWRMO

WEATHER SUMMARY FOR MISSOURI
NATIONAL WEATHER SERVICE SPRINGFIELD MO
500 PM CDT SAT JUL 04 2015

NOTE: "FAIR" INDICATES FEW OR NO CLOUDS BELOW 12,000 FEET WITH NO
       SIGNIFICANT WEATHER AND/OR OBSTRUCTIONS TO VISIBILITY.
       CURRENT SKY AND/OR WEATHER CONDITIONS ARE NOT AVAILABLE FOR
       CHILLICOTHE AND FARMINGTON.

MOZ001>031-035>038-043-044-053-054-042300-
...NORTHERN AND WESTERN MISSOURI...

CITY           SKY/WX    TMP DP  RH WIND       PRES   REMARKS
KANSAS CTY INT PTSUNNY   81  62  52 S5        29.98S
KANSAS C DTWN  PTSUNNY   83  61  47 SE5       29.96F
LEE`S SUMMIT   MOSUNNY   80  62  54 E6        29.98F
ST JOSEPH      PTSUNNY   82  63  52 S7        29.96F
CHILLICOTHE      N/A     83  62  49 SE7       29.98F
KIRKSVILLE     SUNNY     81  58  45 SW5       30.00S

$$
MOZ066>068-077>081-088>096-101>105-042300-
...SOUTHWEST MISSOURI...

CITY           SKY/WX    TMP DP  RH WIND       PRES   REMARKS
SPRINGFIELD    MOSUNNY   84  64  50 E5        29.97F
JOPLIN         SUNNY     87  67  51 SE6       29.95F HX  90

$$
MOZ032>034-039>042-045>050-055>058-069>072-042300-
...CENTRAL MISSOURI...

CITY           SKY/WX    TMP DP  RH WIND       PRES   REMARKS
COLUMBIA       MOSUNNY   81  64  56 CALM      29.99S
JEFFERSON CITY SUNNY     82  61  48 VRB5      29.97F
ROLLA          SUNNY     80  63  55 CALM      29.98F
SEDALIA        SUNNY     82  63  52 S6        29.99F
WHITEMAN AFB   SUNNY     82  64  54 SE5       29.96F
OSAGE BEACH    SUNNY     82  63  51 CALM      29.98F

$$
MOZ051-052-059>065-042300-
...EAST CENTRAL MISSOURI...

CITY           SKY/WX    TMP DP  RH WIND       PRES   REMARKS
ST LOUIS INTL  PTSUNNY   83  60  45 E7        29.98F
SPIRIT OF STL  MOSUNNY   82  63  52 CALM      29.97S
ST CHARLES     SUNNY     82  60  47 VRB5      29.97F

$$
MOZ072>076-082>087-097>100-106>115-042300-
...SOUTH CENTRAL AND SOUTHEAST MISSOURI...

CITY           SKY/WX    TMP DP  RH WIND       PRES   REMARKS
CAPE GIRARDEAU NOT AVBL
FARMINGTON     PTSUNNY   81  64  57 E7        30.02S
POPLAR BLUFF   CLOUDY    80  70  71 E5        29.94F
WEST PLAINS    MOSUNNY   81  65  58 S3        29.99F

$$


USA.gov is the U.S. government's official web portal to all federal, state and local government web resources and services.